Regional Weather Roundup
Issued by NWS Green Bay, WI

Home | Current Version | Previous Version | Graphics & Text | Print | Product List | Glossary Off
Versions: 1 2 3 4 5 6 7 8 9 10 11 12 13 14 15 16 17 18 19 20 21 22 23 24 25 26 27 28 29 30 31 32 33 34 35 36 37 38 39 40 41 42 43 44 45 46 47 48 49 50

000
ASUS43 KGRB 180010
RWRGRB

NORTH-CENTRAL AND NORTHEAST WISCONSIN REGIONAL WEATHER ROUNDUP
NATIONAL WEATHER SERVICE GREEN BAY WI
700 PM CDT WED SEP 17 2014

WIZ005-009-010>012-018-019-180100-
NORTH CENTRAL WISCONSIN

CITY           SKY/WX    TMP DP  RH WIND       PRES   REMARKS
IRONWOOD       CLOUDY    46  45  93 NE8       30.04R
MANITOWISH WTR PTCLDY    51  46  81 N9        30.02R
ARBOR VITAE    CLOUDY    57  49  75 NE7       30.01R
EAGLE RIVER    CLOUDY    52  45  76 NE10G16   30.01R
LAND O LAKES   MOCLDY    48  44  85 NE10      30.04R
RHINELANDER    PTCLDY    57  48  72 NE6       30.00R
PHILLIPS       PTCLDY    58  49  72 N10G16    29.99R
ANTIGO         CLEAR     60  50  70 W5        29.97R
TOMAHAWK       MOCLDY    59  51  74 CALM      29.99R
MERRILL        CLOUDY    61  52  72 CALM      29.97R
$$

WIZ013-073-180100-
NORTHEAST WISCONSIN

CITY           SKY/WX    TMP DP  RH WIND       PRES   REMARKS
IRON MOUNTAIN  CLOUDY    49  43  80 N7        30.03R
MARINETTE      CLOUDY    55  48  76 NE15G21   29.97R
OCONTO         MOCLDY    61  56  85 CALM      29.94R
$$

WIZ017-030-035>037-045-180100-
CENTRAL WISCONSIN

CITY           SKY/WX    TMP DP  RH WIND       PRES   REMARKS
MEDFORD        CLEAR     62  51  67 SW3       29.97S
WAUSAU         CLEAR     63  50  62 W6        29.95S
MOSINEE        CLEAR     63  54  72 SW3       29.98R
MARSHFIELD     CLEAR     63  52  67 W5        29.97S
WISC RAPIDS    PTCLDY    60  55  83 SW3       29.98S
STEVENS POINT  CLEAR     63  49  59 W3        29.98R
WAUPACA        CLEAR     65  51  62 CALM      29.96S
SHAWANO        CLEAR     64  54  69 CALM      29.95S
CLINTONVILLE   CLEAR     64  50  59 W3        29.95R
$$

WIZ038-039-048-051-180100-
FOX VALLEY

CITY           SKY/WX    TMP DP  RH WIND       PRES   REMARKS
NWS GREEN BAY  CLEAR     62  53  72 SW5       29.95R
APPLETON       PTCLDY    64  48  55 SW6       29.96S
OSHKOSH        CLEAR     64  51  62 CALM      29.96S
FOND DU LAC    CLEAR     62  51  67 SW5       29.97S
$$

WIZ022-050-052-180100-
EAST CENTRAL WISCONSIN

CITY           SKY/WX    TMP DP  RH WIND       PRES   REMARKS
STURGEON BAY   CLEAR     61  52  72 CALM      29.95S
MANITOWOC      CLEAR     57  52  82 S3        29.97R HAZE
SHEBOYGAN      CLEAR     60  51  72 S6        29.97S
$$

LMZ563-521-522-541>543-180100-
LAKESHORE

STATION/POSITION TIME  TEMP    WIND        PRES    VSBY  WAVE
                       AIR SEA DIR/SP/G                  HT/PER
                 (UTC) (F)     (DEG/KT/KT) (MB)    (MI)  (FT/S)
SHEBOYGAN LKSHOR 0000   60 49  190/ 11/ 12 1015.3R
KEWAUNEE LKSHORE 0000   57     180/  8/ 10 1013.3S
NORTHPORT PIER   0000   56      20/ 15/ 20 1015.6S
N MID LAKE BUOY  0000   55 58   10/ 19/ 23 1015.3R         2/ 4
S GREEN BAY BUOY 0000   62     VRB  4/  4  1014.8R
SISTER BAY LKSHO 2300           20/ 14/ 21   N/A
CHAMBERS ISLAND  0000   54      10/ 22/ 29 1015.2R
MENOMINEE LKSHOR 0000   55      30/ 25/ 29 1015.4R
$$



USA.gov is the U.S. government's official web portal to all federal, state and local government web resources and services.